Imperial, CA

1:50 AM PDT on October 17, 2017 (GMT -0700)
Imperial County

Weather History for KIPL - March, 2014

Change the Weather History Date:

Saturday, March 22, 2014

  Actual Average Record
Temperature  
Mean Temperature 70 °F -  
Max Temperature 84 °F 81 °F 95 °F (2004)
Min Temperature 55 °F 52 °F 40 °F (1955)
Cooling Degree Days 4    
Growing Degree Days 20 (Base 50)    
Moisture  
Dew Point 39 °F    
Average Humidity 36    
Maximum Humidity 62    
Minimum Humidity 15    
Precipitation  
Precipitation 0.00 in - - ()
Sea Level Pressure  
Sea Level Pressure 29.89 in    
Wind  
Wind Speed 6 mph (West)    
Max Wind Speed 12 mph    
Max Gust Speed -    
Visibility 10 miles    
Events      
Averages and records for this station are not official NWS values.
T = Trace of Precipitation, MM = Missing Value Source: NWS Daily Summary

Daily Weather History Graph

Daily Weather History Graph

Search for Another Location

Airport or City:

Trip Planner

Search our weather history database for the weather conditions in past years. The results will help you decide how hot, cold, wet, or windy it might be!

Date:

Astronomy

Mar. 22, 2014 Rise Set
Actual Time 6:43 AM PDT 6:55 PM PDT
Civil Twilight 6:18 AM PDT 7:20 PM PDT
Nautical Twilight 5:49 AM PDT 7:48 PM PDT
Astronomical Twilight 5:20 AM PDT 8:17 PM PDT
Moon 12:03 AM PDT (3/22) 10:46 AM PDT (3/22)
Length of Visible Light 13h 01m
Length of Day
12h 12m
Waning Gibbous, 64% of the Moon is Illuminated
Mar 22
Waning Gibbous
Mar 23
Last Quarter
Mar 30
New
Apr 7
First Quarter
Apr 15
Full

Hourly Weather History & Observations

Time (PDT) Temp. Dew Point Humidity Pressure Visibility Wind Dir Wind Speed Gust Speed Precip Events Conditions
12:53 AM 61.0 °F 39.9 °F 46% 29.84 in 10.0 mi West 6.9 mph - N/A   Clear
1:53 AM 64.0 °F 39.0 °F 40% 29.85 in 10.0 mi West 11.5 mph - N/A   Clear
2:53 AM 61.0 °F 37.0 °F 41% 29.83 in 10.0 mi NW 4.6 mph - N/A   Clear
3:53 AM 59.0 °F 35.1 °F 41% 29.83 in 10.0 mi WSW 3.5 mph - N/A   Clear
4:53 AM 61.0 °F 39.0 °F 44% 29.84 in 10.0 mi West 10.4 mph - N/A   Clear
5:53 AM 60.1 °F 37.9 °F 44% 29.86 in 10.0 mi WSW 8.1 mph - N/A   Clear
6:53 AM 59.0 °F 39.0 °F 48% 29.88 in 10.0 mi WSW 3.5 mph - N/A   Clear
7:53 AM 55.9 °F 43.0 °F 62% 29.91 in 10.0 mi SE 4.6 mph - N/A   Clear
8:53 AM 64.9 °F 41.0 °F 42% 29.93 in 10.0 mi Calm Calm - N/A   Clear
9:53 AM 69.1 °F 44.1 °F 40% 29.94 in 10.0 mi Calm Calm - N/A   Clear
10:53 AM 73.0 °F 45.0 °F 37% 29.94 in 10.0 mi Variable 3.5 mph - N/A   Clear
11:53 AM 77.0 °F 35.1 °F 22% 29.94 in 10.0 mi Variable 3.5 mph - N/A   Clear
12:53 PM 80.1 °F 33.1 °F 18% 29.92 in 10.0 mi NW 8.1 mph - N/A   Clear
1:53 PM 82.0 °F 34.0 °F 18% 29.90 in 10.0 mi NW 5.8 mph - N/A   Clear
2:53 PM 82.9 °F 33.1 °F 17% 29.88 in 10.0 mi Calm Calm - N/A   Clear
3:53 PM 82.9 °F 33.1 °F 17% 29.87 in 10.0 mi Calm Calm - N/A   Clear
4:53 PM 84.0 °F 32.0 °F 15% 29.86 in 10.0 mi Calm Calm - N/A   Clear
5:53 PM 82.9 °F 35.1 °F 18% 29.86 in 10.0 mi West 3.5 mph - N/A   Clear
6:53 PM 78.1 °F 42.1 °F 28% 29.87 in 10.0 mi West 5.8 mph - N/A   Clear
7:53 PM 73.0 °F 44.1 °F 35% 29.88 in 10.0 mi WSW 8.1 mph - N/A   Clear
8:53 PM 70.0 °F 45.0 °F 41% 29.91 in 10.0 mi WSW 10.4 mph - N/A   Clear
9:53 PM 66.9 °F 46.0 °F 47% 29.93 in 10.0 mi West 9.2 mph - N/A   Clear
10:53 PM 64.0 °F 46.0 °F 52% 29.94 in 10.0 mi West 9.2 mph - N/A   Clear
11:53 PM 62.1 °F 45.0 °F 53% 29.94 in 10.0 mi West 6.9 mph - N/A   Clear